Flag for U.S.A. Weather past 2 weeks in Baton Rouge, Louisiana, U.S.A.

Now
74 °F

Fog.


Feels Like: 70 °F
Forecast: 75 / 85 °F
Wind: No wind

Location: Baton Rouge Metropolitan - Ryan Field

Current Time: Jul 5, 2015 at 4:38:24 AM

Latest Report: Jul 5, 2015 at 3:53 AM


Visibility: 5 mi

Pressure: 30.07 "Hg

Humidity: 97%

Dew point: 73 °F

Location of Baton RougeLocation

Historic Weather in Baton Rouge — Graph

°F

Baton Rouge temperature yesterday

Maximum temperature yesterday: 87 °F (at 10:53 AM)
Minimum temperature yesterday: 71 °F (at 12:57 PM)
Average temperature yesterday: 78 °F

Past Weeks' High & Low Weather Summary

 TemperatureHumidityPressure
High96 °F (Jun 23, 3:53 PM)100% (Jun 26, 5:53 AM)30.16 "Hg (Jun 26, 5:53 AM)
Low70 °F (Jun 29, 11:53 PM)47% (Jul 3, 2:53 PM)29.94 "Hg (Jun 27, 5:53 PM)
Average80 °F80%30.05 "Hg
* Reported Jun 20 2:53 AM — Jul 5 2:53 AM, Baton Rouge, Weather by CustomWeather, © 2015

Note: Actual official high and low records may vary slightly from our data, if they occured in-between our weather recording intervals... More about our weather records

Advertising

Baton Rouge weather history for previous 24 hours

 ConditionsComfort  
Time TempWeatherWind HumidityBarometerVisibility
2:53 AM
Sun, Jul 5
74 °FLight rain. Fog.5 mph94%30.05 "Hg4 mi
1:53 AM74 °FFog.No wind94%30.05 "Hg5 mi
12:53 AM74 °FFog.No wind94%30.06 "Hg3 mi
11:53 PM
Sat, Jul 4
74 °FLight rain. Fog.3 mph94%30.06 "Hg4 mi
10:53 PM74 °FFog.No wind97%30.08 "Hg3 mi
9:53 PM74 °FClear.No wind97%30.06 "Hg7 mi
8:53 PM74 °FSunny.5 mph97%30.05 "Hg10 mi
7:53 PM75 °FSunny.No wind94%30.04 "Hg10 mi
6:53 PM75 °FSunny.5 mph94%30.03 "Hg10 mi
5:53 PM75 °FPassing clouds.6 mph94%30.03 "Hg10 mi
4:53 PM76 °FLight rain. Partly sunny.No wind88%30.06 "Hg10 mi
3:53 PM77 °FLight rain. Scattered clouds.5 mph85%30.05 "Hg10 mi
2:53 PM76 °FSunny.3 mph88%30.03 "Hg10 mi
1:53 PM72 °FLight rain. Partly sunny.5 mph91%30.05 "Hg10 mi
12:57 PM71 °FLight rain. Partly sunny.5 mph87%30.04 "Hg10 mi
11:53 AM87 °FPartly sunny.12 mph63%30.02 "Hg10 mi
10:53 AM87 °FPartly sunny.15 mph67%30.04 "Hg10 mi
9:53 AM84 °FPartly sunny.12 mph77%30.06 "Hg10 mi
8:53 AM83 °FScattered clouds.8 mph79%30.05 "Hg10 mi
7:53 AM81 °FPassing clouds.9 mph82%30.04 "Hg10 mi
6:53 AM79 °FClear.5 mph88%30.03 "Hg10 mi
5:53 AM79 °FClear.3 mph84%30.02 "Hg10 mi
4:53 AM79 °FClear.6 mph84%30.00 "Hg10 mi
Weather by CustomWeather, © 2015

See weather overviewHow to use our weather pages